QPF
0.09 0.09 0.09 0.09 0.06 0.05 0.07 0.09 0.07 0.08 0.06 0.03 0.03 0.02 0.02 0.03 0.03 0.03 0.01 0.00 0.01 0.01 0.01 0.01 0.01 0.01 0.01 0.01 0.01 0.01 0.00 0.00 0.00 0.01 0.00 0.00 0.00 0.00 0.00 0.00 0.00 0.00 0.01
0.08 0.08 0.07 0.07 0.05 0.04 0.05 0.06 0.05 0.06 0.05 0.04 0.03 0.01 0.02 0.03 0.03 0.06 0.03 0.01 0.00 0.00 0.00 0.00 0.00 0.00 0.00 0.01 0.01 0.01 0.01 0.00 0.00 0.00 0.00 0.01 0.01 0.00 0.00 0.00 0.00 0.01 0.01
0.06 0.06 0.07 0.06 0.05 0.03 0.05 0.06 0.05 0.04 0.05 0.06 0.05 0.04 0.04 0.04 0.03 0.02 0.04 0.05 0.03 0.00 0.00 0.00 0.00 0.01 0.01 0.01 0.01 0.01 0.01 0.01 0.01 0.00 0.01 0.01 0.01 0.02 0.01 0.00 0.00 0.01 0.01
0.04 0.05 0.07 0.07 0.05 0.04 0.05 0.06 0.05 0.05 0.08 0.08 0.07 0.08 0.06 0.05 0.03 0.02 0.03 0.06 0.07 0.03 0.01 0.00 0.00 0.00 0.00 0.00 0.01 0.01 0.01 0.01 0.01 0.01 0.01 0.01 0.01 0.01 0.02 0.01 0.01 0.01 0.01
0.03 0.03 0.06 0.07 0.04 0.05 0.05 0.03 0.05 0.06 0.10 0.10 0.07 0.07 0.06 0.05 0.06 0.04 0.02 0.04 0.06 0.06 0.05 0.02 0.01 0.00 0.00 0.00 0.01 0.02 0.02 0.01 0.01 0.01 0.00 0.00 0.01 0.01 0.01 0.01 0.01 0.00 0.00
0.03 0.04 0.04 0.05 0.05 0.05 0.07 0.06 0.08 0.06 0.07 0.08 0.05 0.08 0.06 0.04 0.05 0.05 0.03 0.04 0.05 0.04 0.06 0.05 0.04 0.02 0.01 0.01 0.01 0.01 0.01 0.01 0.01 0.01 0.01 0.00 0.00 0.00 0.00 0.00 0.01 0.01 0.00
0.04 0.05 0.06 0.08 0.06 0.06 0.05 0.04 0.06 0.05 0.06 0.04 0.08 0.11 0.09 0.05 0.05 0.05 0.04 0.04 0.03 0.03 0.04 0.06 0.08 0.08 0.03 0.01 0.01 0.01 0.00 0.01 0.01 0.00 0.00 0.00 0.00 0.00 0.00 0.00 0.00 0.00 0.01
0.05 0.04 0.07 0.05 0.05 0.07 0.07 0.07 0.07 0.08 0.07 0.05 0.09 0.14 0.14 0.11 0.07 0.04 0.04 0.03 0.02 0.03 0.01 0.03 0.05 0.07 0.07 0.06 0.02 0.01 0.01 0.01 0.01 0.01 0.01 0.01 0.01 0.00 0.01 0.01 0.00 0.00 0.00
0.04 0.07 0.07 0.06 0.08 0.04 0.06 0.08 0.07 0.07 0.09 0.07 0.07 0.10 0.15 0.15 0.10 0.07 0.04 0.03 0.04 0.04 0.02 0.02 0.03 0.03 0.03 0.06 0.05 0.01 0.01 0.01 0.02 0.01 0.01 0.01 0.01 0.01 0.01 0.01 0.01 0.00 0.00
0.06 0.07 0.07 0.08 0.07 0.05 0.09 0.05 0.06 0.06 0.09 0.08 0.06 0.05 0.07 0.09 0.11 0.13 0.10 0.08 0.08 0.05 0.03 0.01 0.01 0.02 0.02 0.03 0.04 0.01 0.00 0.00 0.01 0.02 0.02 0.02 0.02 0.01 0.01 0.01 0.01 0.01 0.01
0.08 0.09 0.08 0.09 0.07 0.06 0.08 0.07 0.10 0.08 0.06 0.06 0.06 0.06 0.06 0.07 0.06 0.10 0.14 0.10 0.07 0.03 0.01 0.01 0.02 0.03 0.02 0.03 0.02 0.00 0.00 0.00 0.00 0.01 0.01 0.01 0.02 0.02 0.01 0.01 0.01 0.02 0.02
0.10 0.11 0.11 0.11 0.08 0.07 0.08 0.08 0.09 0.09 0.06 0.08 0.08 0.07 0.08 0.05 0.05 0.05 0.07 0.08 0.08 0.04 0.03 0.02 0.02 0.02 0.01 0.02 0.01 0.01 0.00 0.00 0.00 0.00 0.00 0.00 0.01 0.01 0.01 0.02 0.01 0.01 0.02
0.07 0.08 0.10 0.10 0.10 0.09 0.09 0.10 0.10 0.10 0.08 0.09 0.06 0.07 0.06 0.03 0.03 0.04 0.05 0.06 0.07 0.05 0.04 0.03 0.02 0.02 0.03 0.02 0.01 0.00 0.00 0.00 0.00 0.00 0.00 0.00 0.00 0.00 0.01 0.01 0.01 0.01 0.01
0.06 0.08 0.11 0.10 0.09 0.10 0.09 0.11 0.10 0.09 0.09 0.07 0.05 0.07 0.07 0.04 0.03 0.03 0.04 0.06 0.07 0.06 0.06 0.03 0.01 0.01 0.02 0.02 0.01 0.00 0.00 0.00 0.00 0.00 0.00 0.00 0.00 0.00 0.01 0.01 0.01 0.01 0.01
0.07 0.08 0.10 0.10 0.10 0.11 0.10 0.12 0.10 0.09 0.11 0.07 0.06 0.07 0.07 0.05 0.04 0.03 0.04 0.06 0.06 0.07 0.05 0.03 0.01 0.00 0.01 0.01 0.01 0.00 0.01 0.01 0.00 0.00 0.00 0.00 0.00 0.01 0.01 0.01 0.01 0.00 0.00
0.10 0.10 0.10 0.10 0.11 0.11 0.10 0.12 0.11 0.10 0.11 0.09 0.08 0.09 0.08 0.07 0.06 0.04 0.04 0.06 0.06 0.06 0.05 0.02 0.01 0.01 0.01 0.01 0.01 0.01 0.01 0.02 0.01 0.01 0.01 0.01 0.01 0.01 0.01 0.01 0.00 0.00 0.00
0.12 0.11 0.11 0.11 0.11 0.10 0.10 0.10 0.10 0.11 0.12 0.12 0.09 0.11 0.09 0.09 0.08 0.06 0.04 0.04 0.04 0.05 0.06 0.02 0.02 0.01 0.01 0.01 0.01 0.01 0.01 0.01 0.01 0.01 0.01 0.01 0.01 0.01 0.01 0.00 0.00 0.00 0.00
0.11 0.10 0.10 0.10 0.08 0.09 0.10 0.11 0.11 0.15 0.17 0.19 0.16 0.16 0.14 0.11 0.09 0.07 0.06 0.04 0.03 0.04 0.05 0.04 0.02 0.02 0.02 0.01 0.02 0.01 0.01 0.00 0.00 0.01 0.01 0.01 0.01 0.00 0.00 0.00 0.00 0.00 0.00
0.12 0.11 0.11 0.10 0.08 0.09 0.11 0.12 0.14 0.17 0.18 0.20 0.19 0.16 0.14 0.12 0.10 0.08 0.07 0.06 0.04 0.03 0.03 0.03 0.03 0.03 0.03 0.02 0.03 0.02 0.01 0.01 0.00 0.00 0.00 0.00 0.01 0.01 0.01 0.00 0.00 0.00 0.00
0.11 0.11 0.11 0.09 0.09 0.10 0.11 0.12 0.14 0.15 0.17 0.15 0.14 0.12 0.11 0.11 0.10 0.09 0.09 0.07 0.06 0.05 0.04 0.05 0.05 0.04 0.03 0.03 0.03 0.03 0.02 0.01 0.01 0.00 0.01 0.01 0.01 0.01 0.01 0.00 0.00 0.00 0.00
0.11 0.12 0.12 0.11 0.11 0.11 0.09 0.12 0.14 0.14 0.17 0.15 0.12 0.10 0.07 0.07 0.09 0.09 0.08 0.08 0.08 0.07 0.06 0.06 0.06 0.05 0.05 0.06 0.04 0.03 0.02 0.02 0.02 0.01 0.01 0.01 0.01 0.01 0.01 0.01 0.01 0.01 0.00
0.14 0.14 0.13 0.13 0.12 0.08 0.08 0.08 0.11 0.14 0.14 0.13 0.12 0.10 0.07 0.06 0.07 0.06 0.05 0.05 0.06 0.07 0.07 0.07 0.06 0.06 0.06 0.05 0.05 0.05 0.04 0.05 0.04 0.03 0.03 0.03 0.02 0.02 0.02 0.02 0.02 0.01 0.01
0.14 0.14 0.12 0.12 0.11 0.11 0.10 0.07 0.08 0.11 0.12 0.12 0.12 0.11 0.09 0.06 0.07 0.06 0.06 0.05 0.03 0.04 0.05 0.06 0.06 0.06 0.07 0.07 0.06 0.05 0.05 0.05 0.05 0.04 0.05 0.04 0.03 0.03 0.02 0.02 0.03 0.02 0.01
0.12 0.12 0.12 0.14 0.15 0.12 0.10 0.07 0.08 0.10 0.12 0.13 0.14 0.16 0.14 0.13 0.09 0.08 0.08 0.07 0.06 0.06 0.06 0.05 0.05 0.06 0.07 0.07 0.06 0.05 0.06 0.06 0.06 0.05 0.07 0.06 0.04 0.03 0.01 0.02 0.03 0.03 0.03
0.13 0.14 0.15 0.17 0.17 0.15 0.14 0.10 0.09 0.08 0.10 0.13 0.15 0.15 0.14 0.13 0.11 0.10 0.10 0.10 0.09 0.08 0.08 0.06 0.04 0.04 0.03 0.04 0.04 0.05 0.06 0.07 0.06 0.06 0.08 0.07 0.05 0.05 0.04 0.03 0.03 0.03 0.03
0.12 0.16 0.18 0.17 0.16 0.14 0.15 0.15 0.12 0.09 0.09 0.10 0.12 0.14 0.13 0.12 0.12 0.11 0.08 0.08 0.08 0.08 0.08 0.07 0.05 0.06 0.06 0.07 0.08 0.07 0.07 0.08 0.08 0.07 0.06 0.07 0.06 0.06 0.05 0.02 0.02 0.02 0.02
MSLP
1015.38 1015.60 1015.77 1015.92 1016.07 1016.22 1016.39 1016.55 1016.69 1016.79 1016.85 1016.88 1016.92 1017.01 1017.18 1017.47 1017.87 1018.38 1018.94 1019.50 1020.01 1020.44 1020.76 1020.98 1021.12 1021.21 1021.29 1021.38 1021.50 1021.64 1021.79 1021.93 1022.06 1022.17 1022.27 1022.35 1022.44 1022.54 1022.65 1022.76 1022.85 1022.92 1022.97
1015.15 1015.39 1015.59 1015.77 1015.94 1016.12 1016.31 1016.50 1016.67 1016.81 1016.93 1017.02 1017.12 1017.25 1017.45 1017.72 1018.08 1018.51 1018.99 1019.47 1019.92 1020.32 1020.64 1020.89 1021.08 1021.23 1021.36 1021.49 1021.61 1021.73 1021.84 1021.93 1022.02 1022.10 1022.18 1022.27 1022.38 1022.50 1022.64 1022.76 1022.87 1022.94 1022.98
1014.89 1015.17 1015.40 1015.62 1015.83 1016.05 1016.27 1016.50 1016.71 1016.90 1017.07 1017.22 1017.37 1017.53 1017.73 1017.97 1018.26 1018.60 1018.97 1019.34 1019.71 1020.05 1020.36 1020.63 1020.87 1021.08 1021.26 1021.43 1021.57 1021.69 1021.78 1021.85 1021.91 1021.96 1022.03 1022.12 1022.24 1022.39 1022.54 1022.69 1022.81 1022.89 1022.94
1014.65 1014.94 1015.22 1015.48 1015.75 1016.01 1016.28 1016.54 1016.79 1017.02 1017.24 1017.44 1017.62 1017.80 1017.99 1018.18 1018.40 1018.63 1018.88 1019.14 1019.41 1019.68 1019.95 1020.22 1020.49 1020.75 1020.99 1021.21 1021.39 1021.53 1021.62 1021.68 1021.73 1021.77 1021.83 1021.93 1022.05 1022.21 1022.38 1022.54 1022.67 1022.77 1022.82
1014.42 1014.74 1015.05 1015.37 1015.68 1015.99 1016.30 1016.60 1016.88 1017.15 1017.40 1017.63 1017.84 1018.02 1018.20 1018.35 1018.49 1018.63 1018.76 1018.91 1019.07 1019.25 1019.47 1019.73 1020.01 1020.30 1020.59 1020.85 1021.08 1021.25 1021.37 1021.45 1021.50 1021.54 1021.60 1021.70 1021.83 1021.98 1022.15 1022.32 1022.46 1022.56 1022.63
1014.24 1014.56 1014.91 1015.26 1015.62 1015.98 1016.32 1016.64 1016.94 1017.23 1017.50 1017.75 1017.97 1018.17 1018.34 1018.46 1018.56 1018.61 1018.65 1018.69 1018.75 1018.85 1019.01 1019.22 1019.49 1019.79 1020.11 1020.41 1020.68 1020.89 1021.05 1021.16 1021.23 1021.30 1021.37 1021.47 1021.59 1021.74 1021.90 1022.06 1022.19 1022.30 1022.38
1014.09 1014.41 1014.77 1015.16 1015.55 1015.93 1016.29 1016.62 1016.93 1017.22 1017.50 1017.76 1018.01 1018.22 1018.40 1018.52 1018.59 1018.60 1018.58 1018.55 1018.52 1018.54 1018.62 1018.77 1019.00 1019.28 1019.60 1019.92 1020.22 1020.48 1020.68 1020.83 1020.94 1021.04 1021.13 1021.24 1021.36 1021.50 1021.64 1021.77 1021.90 1022.00 1022.09
1013.96 1014.26 1014.63 1015.02 1015.43 1015.81 1016.17 1016.50 1016.80 1017.09 1017.37 1017.64 1017.91 1018.16 1018.36 1018.51 1018.59 1018.60 1018.56 1018.47 1018.39 1018.33 1018.33 1018.41 1018.58 1018.81 1019.10 1019.42 1019.73 1020.01 1020.26 1020.46 1020.62 1020.76 1020.89 1021.01 1021.13 1021.26 1021.38 1021.49 1021.60 1021.69 1021.77
1013.80 1014.08 1014.44 1014.82 1015.22 1015.60 1015.94 1016.25 1016.54 1016.81 1017.09 1017.38 1017.67 1017.96 1018.22 1018.42 1018.55 1018.59 1018.55 1018.46 1018.33 1018.22 1018.14 1018.14 1018.22 1018.39 1018.62 1018.90 1019.20 1019.50 1019.78 1020.03 1020.25 1020.44 1020.61 1020.76 1020.89 1021.01 1021.12 1021.21 1021.30 1021.37 1021.45
1013.59 1013.84 1014.16 1014.53 1014.90 1015.26 1015.57 1015.86 1016.12 1016.38 1016.65 1016.96 1017.28 1017.62 1017.94 1018.21 1018.41 1018.51 1018.51 1018.43 1018.29 1018.13 1018.00 1017.91 1017.91 1017.99 1018.14 1018.37 1018.63 1018.93 1019.23 1019.52 1019.79 1020.03 1020.25 1020.45 1020.61 1020.74 1020.85 1020.93 1020.99 1021.05 1021.12
1013.28 1013.50 1013.79 1014.12 1014.46 1014.79 1015.08 1015.33 1015.57 1015.82 1016.09 1016.40 1016.76 1017.15 1017.53 1017.87 1018.14 1018.31 1018.36 1018.32 1018.19 1018.01 1017.83 1017.68 1017.59 1017.57 1017.65 1017.80 1018.02 1018.29 1018.60 1018.91 1019.23 1019.53 1019.81 1020.05 1020.25 1020.41 1020.53 1020.61 1020.67 1020.72 1020.78
1012.87 1013.05 1013.31 1013.61 1013.91 1014.21 1014.47 1014.70 1014.93 1015.16 1015.43 1015.76 1016.13 1016.55 1016.98 1017.38 1017.71 1017.95 1018.06 1018.06 1017.96 1017.79 1017.58 1017.38 1017.23 1017.14 1017.13 1017.22 1017.39 1017.62 1017.92 1018.24 1018.59 1018.94 1019.27 1019.56 1019.81 1020.01 1020.15 1020.25 1020.32 1020.37 1020.43
1012.36 1012.51 1012.73 1013.00 1013.28 1013.55 1013.79 1014.02 1014.23 1014.46 1014.73 1015.05 1015.43 1015.86 1016.31 1016.75 1017.13 1017.41 1017.58 1017.64 1017.58 1017.43 1017.23 1017.02 1016.83 1016.69 1016.63 1016.65 1016.77 1016.96 1017.23 1017.55 1017.91 1018.29 1018.65 1018.99 1019.28 1019.52 1019.71 1019.84 1019.93 1020.00 1020.06
1011.78 1011.90 1012.09 1012.33 1012.59 1012.84 1013.09 1013.31 1013.53 1013.75 1014.02 1014.34 1014.71 1015.13 1015.57 1016.01 1016.41 1016.73 1016.95 1017.05 1017.05 1016.95 1016.79 1016.61 1016.42 1016.27 1016.18 1016.17 1016.23 1016.39 1016.62 1016.91 1017.26 1017.63 1018.01 1018.38 1018.70 1018.98 1019.21 1019.38 1019.50 1019.60 1019.68
1011.15 1011.25 1011.41 1011.62 1011.87 1012.13 1012.38 1012.61 1012.84 1013.08 1013.34 1013.64 1013.99 1014.38 1014.79 1015.21 1015.60 1015.94 1016.19 1016.35 1016.41 1016.39 1016.31 1016.18 1016.05 1015.93 1015.84 1015.81 1015.85 1015.96 1016.14 1016.39 1016.70 1017.04 1017.40 1017.76 1018.10 1018.40 1018.66 1018.87 1019.04 1019.18 1019.30
1010.52 1010.58 1010.72 1010.91 1011.15 1011.41 1011.67 1011.92 1012.17 1012.41 1012.67 1012.95 1013.27 1013.62 1013.99 1014.38 1014.75 1015.09 1015.37 1015.59 1015.73 1015.81 1015.82 1015.80 1015.75 1015.69 1015.64 1015.62 1015.65 1015.72 1015.85 1016.03 1016.27 1016.56 1016.87 1017.20 1017.52 1017.83 1018.10 1018.35 1018.56 1018.75 1018.91
1009.90 1009.92 1010.02 1010.19 1010.41 1010.66 1010.93 1011.20 1011.46 1011.72 1011.98 1012.24 1012.53 1012.84 1013.18 1013.53 1013.88 1014.22 1014.54 1014.82 1015.05 1015.24 1015.37 1015.47 1015.53 1015.56 1015.58 1015.60 1015.62 1015.66 1015.73 1015.84 1016.00 1016.20 1016.44 1016.70 1016.99 1017.28 1017.56 1017.83 1018.08 1018.31 1018.53
1009.29 1009.26 1009.31 1009.44 1009.63 1009.87 1010.13 1010.40 1010.67 1010.93 1011.19 1011.45 1011.73 1012.01 1012.32 1012.66 1013.00 1013.36 1013.72 1014.06 1014.39 1014.69 1014.96 1015.19 1015.37 1015.50 1015.60 1015.66 1015.69 1015.71 1015.74 1015.77 1015.84 1015.95 1016.10 1016.29 1016.51 1016.77 1017.04 1017.33 1017.61 1017.89 1018.15
1008.70 1008.60 1008.58 1008.65 1008.78 1008.98 1009.21 1009.47 1009.73 1010.00 1010.26 1010.52 1010.80 1011.09 1011.40 1011.74 1012.10 1012.50 1012.91 1013.33 1013.75 1014.16 1014.55 1014.90 1015.20 1015.43 1015.61 1015.72 1015.77 1015.78 1015.77 1015.75 1015.74 1015.76 1015.83 1015.94 1016.11 1016.32 1016.57 1016.86 1017.17 1017.48 1017.79
1008.11 1007.94 1007.84 1007.82 1007.88 1008.01 1008.18 1008.39 1008.63 1008.88 1009.15 1009.42 1009.72 1010.04 1010.38 1010.76 1011.18 1011.63 1012.11 1012.61 1013.12 1013.62 1014.11 1014.56 1014.95 1015.27 1015.52 1015.68 1015.76 1015.78 1015.74 1015.69 1015.62 1015.58 1015.59 1015.64 1015.76 1015.93 1016.17 1016.45 1016.77 1017.10 1017.44
1007.57 1007.32 1007.13 1007.00 1006.96 1006.98 1007.07 1007.21 1007.40 1007.63 1007.89 1008.19 1008.52 1008.89 1009.30 1009.75 1010.24 1010.76 1011.32 1011.89 1012.48 1013.06 1013.62 1014.13 1014.59 1014.97 1015.26 1015.47 1015.58 1015.62 1015.60 1015.53 1015.45 1015.39 1015.36 1015.38 1015.47 1015.62 1015.84 1016.11 1016.42 1016.76 1017.11
1007.10 1006.78 1006.49 1006.26 1006.09 1006.00 1005.98 1006.03 1006.15 1006.33 1006.59 1006.91 1007.29 1007.72 1008.22 1008.76 1009.33 1009.94 1010.58 1011.22 1011.86 1012.48 1013.07 1013.62 1014.11 1014.52 1014.84 1015.08 1015.23 1015.30 1015.31 1015.27 1015.22 1015.17 1015.15 1015.17 1015.25 1015.39 1015.60 1015.86 1016.15 1016.47 1016.80
1006.77 1006.38 1006.01 1005.68 1005.40 1005.18 1005.04 1004.99 1005.02 1005.16 1005.39 1005.73 1006.15 1006.66 1007.24 1007.87 1008.54 1009.24 1009.93 1010.63 1011.29 1011.93 1012.53 1013.07 1013.55 1013.96 1014.29 1014.55 1014.74 1014.86 1014.92 1014.94 1014.94 1014.95 1014.97 1015.02 1015.12 1015.26 1015.46 1015.69 1015.96 1016.24 1016.52
1006.61 1006.19 1005.77 1005.37 1004.99 1004.66 1004.41 1004.25 1004.20 1004.28 1004.49 1004.82 1005.28 1005.85 1006.50 1007.21 1007.96 1008.72 1009.46 1010.18 1010.85 1011.47 1012.04 1012.55 1013.00 1013.38 1013.72 1013.99 1014.21 1014.38 1014.51 1014.61 1014.69 1014.77 1014.85 1014.96 1015.08 1015.24 1015.42 1015.63 1015.85 1016.06 1016.27
1006.63 1006.23 1005.80 1005.36 1004.92 1004.52 1004.19 1003.94 1003.81 1003.83 1004.00 1004.32 1004.79 1005.39 1006.09 1006.85 1007.65 1008.45 1009.21 1009.93 1010.58 1011.16 1011.68 1012.14 1012.54 1012.89 1013.21 1013.49 1013.74 1013.97 1014.17 1014.35 1014.52 1014.68 1014.83 1014.99 1015.14 1015.31 1015.47 1015.63 1015.78 1015.92 1016.04
1006.81 1006.47 1006.07 1005.64 1005.20 1004.77 1004.39 1004.09 1003.90 1003.86 1003.99 1004.28 1004.74 1005.34 1006.05 1006.82 1007.63 1008.43 1009.19 1009.88 1010.49 1011.03 1011.49 1011.89 1012.24 1012.55 1012.85 1013.14 1013.42 1013.69 1013.96 1014.21 1014.46 1014.69 1014.90 1015.09 1015.27 1015.42 1015.55 1015.66 1015.74 1015.79 1015.81
Thickness
5766 5764 5762 5761 5760 5759 5757 5757 5757 5756 5755 5756 5756 5756 5755 5753 5749 5745 5739 5737 5735 5734 5732 5730 5728 5726 5725 5723 5722 5720 5719 5718 5717 5716 5715 5714 5713 5711 5710 5709 5708 5707 5706
5766 5763 5762 5761 5761 5759 5758 5757 5756 5755 5755 5755 5755 5754 5754 5752 5750 5745 5740 5737 5735 5734 5732 5730 5728 5726 5725 5723 5722 5721 5719 5718 5717 5715 5714 5713 5712 5711 5709 5708 5708 5707 5706
5765 5763 5762 5760 5760 5759 5758 5757 5756 5755 5754 5753 5753 5753 5753 5752 5749 5746 5742 5739 5736 5734 5732 5731 5729 5727 5726 5724 5722 5721 5719 5718 5717 5716 5714 5713 5712 5710 5709 5708 5707 5707 5706
5765 5763 5762 5760 5759 5758 5756 5755 5755 5753 5752 5752 5751 5751 5751 5750 5749 5747 5744 5742 5739 5736 5733 5732 5730 5728 5727 5725 5723 5722 5720 5719 5717 5716 5714 5713 5712 5711 5710 5708 5707 5707 5706
5764 5763 5762 5761 5759 5758 5756 5756 5754 5753 5750 5750 5750 5750 5750 5749 5748 5748 5746 5744 5742 5739 5736 5733 5732 5730 5728 5726 5725 5723 5722 5720 5718 5717 5715 5713 5712 5711 5710 5709 5708 5707 5706
5764 5762 5761 5760 5759 5757 5755 5755 5753 5752 5750 5749 5751 5749 5749 5748 5748 5748 5747 5746 5744 5741 5739 5736 5733 5731 5730 5728 5726 5725 5723 5722 5720 5718 5716 5715 5713 5712 5711 5710 5709 5707 5706
5763 5761 5761 5758 5758 5756 5754 5753 5752 5749 5748 5750 5746 5743 5745 5747 5747 5747 5747 5746 5745 5744 5742 5739 5736 5734 5732 5730 5728 5726 5725 5723 5721 5720 5718 5716 5715 5713 5712 5710 5709 5708 5707
5762 5761 5759 5758 5756 5755 5754 5753 5751 5748 5747 5749 5744 5738 5733 5736 5743 5749 5748 5746 5746 5745 5743 5742 5740 5738 5736 5733 5730 5728 5726 5725 5723 5721 5720 5718 5716 5714 5713 5711 5710 5709 5707
5762 5760 5759 5758 5756 5755 5752 5751 5751 5747 5744 5747 5748 5741 5732 5728 5735 5743 5747 5748 5748 5746 5745 5745 5742 5741 5738 5736 5733 5731 5729 5727 5725 5723 5721 5719 5718 5716 5714 5712 5711 5709 5708
5761 5760 5759 5757 5756 5755 5753 5751 5751 5749 5746 5743 5746 5748 5746 5743 5735 5732 5740 5745 5747 5747 5747 5747 5746 5744 5741 5739 5736 5734 5731 5729 5726 5724 5722 5721 5719 5717 5715 5713 5712 5711 5709
5760 5759 5758 5756 5755 5754 5754 5752 5752 5750 5748 5745 5745 5745 5745 5745 5744 5735 5731 5737 5743 5747 5749 5749 5748 5746 5744 5742 5739 5736 5734 5731 5728 5726 5724 5722 5720 5718 5716 5714 5713 5711 5710
5759 5758 5757 5756 5755 5754 5753 5752 5751 5749 5748 5747 5747 5746 5744 5742 5741 5739 5735 5735 5737 5744 5749 5751 5750 5749 5747 5744 5742 5740 5736 5733 5730 5728 5725 5723 5721 5720 5717 5716 5714 5712 5711
5757 5757 5757 5755 5754 5753 5752 5751 5750 5749 5748 5747 5746 5746 5747 5747 5747 5744 5739 5737 5738 5743 5747 5750 5751 5750 5749 5746 5744 5742 5738 5735 5732 5729 5727 5724 5722 5720 5718 5716 5715 5713 5712
5759 5759 5757 5755 5754 5752 5752 5751 5750 5749 5748 5747 5747 5746 5746 5747 5748 5746 5742 5738 5734 5736 5741 5745 5751 5751 5750 5748 5745 5742 5738 5735 5733 5730 5728 5725 5723 5721 5719 5717 5715 5714 5712
5760 5759 5757 5755 5754 5753 5751 5750 5749 5748 5748 5747 5746 5746 5745 5746 5747 5747 5746 5743 5735 5728 5732 5742 5747 5751 5750 5748 5745 5741 5739 5736 5733 5731 5728 5726 5724 5721 5719 5717 5715 5714 5712
5760 5758 5756 5755 5754 5752 5750 5749 5748 5747 5746 5745 5745 5745 5744 5745 5745 5745 5744 5743 5741 5736 5732 5741 5744 5748 5748 5747 5743 5741 5738 5736 5734 5731 5729 5727 5724 5722 5720 5718 5716 5714 5712
5759 5757 5755 5753 5752 5750 5749 5747 5747 5746 5744 5744 5744 5743 5742 5742 5742 5742 5742 5741 5740 5739 5733 5737 5743 5745 5744 5742 5740 5739 5737 5735 5733 5731 5729 5727 5725 5723 5720 5718 5715 5713 5711
5759 5757 5755 5752 5751 5750 5748 5746 5745 5745 5743 5742 5741 5741 5740 5740 5738 5738 5738 5738 5738 5738 5735 5731 5735 5737 5738 5739 5737 5736 5735 5734 5733 5732 5730 5728 5725 5723 5720 5718 5715 5713 5710
5757 5756 5754 5751 5750 5749 5747 5746 5745 5744 5743 5742 5740 5739 5739 5738 5736 5736 5736 5736 5736 5737 5735 5731 5730 5733 5734 5734 5732 5731 5732 5732 5732 5732 5729 5727 5724 5722 5719 5717 5714 5711 5708
5756 5754 5753 5751 5749 5748 5747 5746 5745 5743 5742 5741 5740 5739 5738 5737 5736 5735 5733 5733 5733 5731 5731 5728 5726 5727 5727 5729 5727 5724 5723 5726 5727 5728 5726 5724 5721 5719 5717 5715 5712 5709 5706
5755 5753 5751 5750 5749 5747 5746 5745 5743 5742 5740 5738 5738 5737 5738 5737 5737 5735 5733 5731 5729 5727 5725 5723 5721 5721 5721 5720 5720 5720 5718 5719 5721 5722 5721 5720 5718 5715 5712 5711 5708 5706 5703
5752 5750 5749 5748 5746 5747 5747 5744 5742 5740 5738 5736 5735 5735 5735 5735 5733 5732 5731 5729 5727 5724 5721 5719 5717 5715 5716 5717 5717 5715 5712 5710 5708 5715 5713 5713 5714 5711 5709 5708 5706 5703 5700
5748 5746 5745 5745 5744 5743 5742 5741 5738 5737 5736 5735 5733 5732 5732 5734 5731 5728 5727 5725 5724 5722 5720 5717 5713 5712 5711 5711 5710 5708 5706 5704 5703 5707 5705 5703 5705 5703 5704 5703 5701 5699 5695
5743 5742 5741 5741 5740 5739 5738 5736 5734 5733 5732 5732 5731 5730 5728 5727 5726 5724 5722 5721 5719 5718 5717 5714 5712 5710 5709 5707 5705 5704 5702 5701 5701 5700 5699 5693 5695 5695 5697 5695 5693 5691 5687
5739 5738 5737 5735 5734 5733 5731 5730 5729 5728 5727 5727 5726 5726 5725 5723 5721 5719 5717 5715 5713 5713 5713 5711 5709 5706 5703 5701 5699 5695 5693 5690 5688 5690 5691 5687 5687 5686 5686 5684 5683 5681 5678
5734 5733 5732 5730 5729 5727 5725 5724 5722 5723 5722 5721 5720 5720 5719 5717 5715 5713 5711 5709 5705 5705 5704 5703 5700 5698 5696 5693 5691 5688 5685 5681 5679 5679 5681 5678 5677 5674 5672 5674 5672 5669 5666